Location: Fish Springs
(37.0754°N, 118.2540°W)
Time: 09:46:29
(UTC+00:00)

Hubble Space Telescope - Pass Details

Date: 31 January 2022
Orbit: 533 x 536 km, 28.5° (Epoch: 27 May)

Event Time Altitude Azimuth Distance (km) Brightness Sun altitude
Rises 02:23:00 0° 215° (SW) 2,655 5.1 -13.6°
Reaches altitude 10° 02:26:30 10° 184° (S) 1,770 3.6 -14.3°
Maximum altitude 02:28:08 12° 161° (SSE) 1,642 3.2 -14.6°
Drops below altitude 10° 02:29:45 10° 137° (SE) 1,774 3.1 -14.9°
Enters shadow 02:29:51 10° 136° (SE) 1,789 3.1 -15.0°
